Location: Peebles
(55.6412°N, 3.1714°W)
Time: 17:28:18
(UTC+01:00)

Cosmos 1934 Rocket - Pass Details

Date: 31 January 2022
Orbit: 938 x 999 km, 83.0° (Epoch: 25 May)

Event Time Altitude Azimuth Distance (km) Brightness Sun altitude
Rises 05:08:55 0° 130° (SE) 3,686 7.7 -25.1°
Reaches altitude 10° 05:12:26 10° 110° (ESE) 2,732 7.2 -24.6°
Maximum altitude 05:16:03 16° 74° (ENE) 2,299 6.8 -24.1°
Drops below altitude 10° 05:19:39 10° 39° (NE) 2,717 6.9 -23.6°
Sets 05:23:07 0° 19° (NNE) 3,657 7.3 -23.1°
